[[{"header":{"parameterUnit":"m.s-1","parameterCategory":1,"la1":30.2991,"la2":30.254,"lo1":-89.0895,"lo2":-89.0444,"dy":0.0017,"dx":0.0017,"nx":28,"ny":28,"refTime":"2024-05-07T21:00:00:Z","depth":0,"parameterNumber":2,"parameterNumberName":"U-component_of_WINDS"},"data":[0,0,0,0,0,0,0,0,0,0,0,0,0,0,0,0,0,0,0,0,0,0,0,0,0,0,0,0,0,0,0,0,0,0,0,0,0,0,0,0,0,0,0,0,0,0,0,0,0,0,0,0,0,0,0,0,0,0,-0.0361,-0.036,0,-0.0283,-0.0282,-0.0281,-0.0278,-0.0279,-0.028,-0.0281,-0.0198,-0.0195,-0.0192,0,0,0,0,0,0,0,0,0,0,0,0,0,-0.0507,-0.0504,-0.0361,-0.036,-0.0359,-0.0283,-0.0282,-0.0281,-0.0278,-0.0279,-0.0281,-0.0282,-0.0199,-0.0196,-0.0192,0,0,0,0,0,0,0,0,0,0,0,0,0,-0.0437,-0.0503,-0.0361,-0.0349,-0.0347,-0.0283,-0.0282,-0.0281,-0.0278,-0.0279,-0.0281,-0.0282,-0.0201,-0.0196,-0.0192,-0.0134,0,0,-0.0177,-0.0175,0,0,0,0,0,0,0,0,-0.0441,-0.0432,-0.0352,-0.035,-0.0347,-0.0292,-0.0303,-0.0231,-0.0278,-0.0304,-0.0281,-0.0283,-0.0228,-0.0221,-0.0203,-0.013,-0.0127,-0.0177,-0.0174,-0.0172,-0.0171,0,0,0,0,0,0,0,-0.0446,-0.0435,-0.033,-0.0351,-0.0348,-0.0346,-0.0338,-0.0289,-0.0259,-0.0302,-0.0302,-0.0292,-0.0227,-0.0208,-0.0201,-0.0126,-0.0177,-0.0173,-0.017,-0.0168,-0.0001,0.0001,0,0,0,0,0,0,-0.0454,-0.0439,-0.0333,-0.0328,-0.0399,-0.0343,-0.0333,-0.0308,-0.026,-0.0254,-0.0291,-0.0293,-0.0215,-0.0207,-0.0199,-0.0127,-0.0172,-0.0168,-0.0165,-0.0002,-0.0,0.0002,0,0,0,0,0,0,-0.0457,-0.0444,-0.0336,-0.0383,-0.037,-0.0339,-0.031,-0.0306,-0.0287,-0.0252,-0.0246,-0.0277,-0.0216,-0.0205,-0.015,-0.0124,-0.0166,-0.0161,-0.0004,-0.0002,0.0001,0.0015,0,0,0,0,0,0,-0.0461,-0.0445,-0.0424,-0.0383,-0.0367,-0.0289,-0.0309,-0.0303,-0.0279,-0.028,-0.0237,-0.0231,-0.0216,-0.0157,-0.0146,-0.0119,-0.0158,-0.0006,-0.0003,-0.0,0.0013,0.0018,0.0022,0,0,0,0,0,-0.0466,-0.0422,-0.0423,-0.041,-0.0339,-0.0288,-0.0279,-0.0263,-0.0277,-0.0254,-0.0232,-0.0232,-0.013,-0.0152,-0.0138,-0.011,-0.0008,-0.0004,-0.0,0.001,0.0017,0.0022,0,0,0,0,0,0,-0.046,-0.0417,-0.0416,-0.0358,-0.0327,-0.0288,-0.0259,-0.0257,-0.022,-0.0223,-0.0205,-0.0195,-0.014,-0.012,-0.0145,-0.0051,-0.007,-0.0064,-0.0066,-0.006,-0.0055,-0.006,-0.0154,0,0,0,0,0,-0.0452,-0.0414,-0.0379,-0.0331,-0.0315,-0.029,-0.0267,-0.0258,-0.0224,-0.021,-0.0184,-0.015,-0.011,-0.0084,-0.0046,0.0015,0.0025,0.0041,0.0046,0.005,0.0056,0.0091,0.0098,0.0014,0.0014,0.0014,0,0,-0.0435,-0.0406,-0.0384,-0.0329,-0.0303,-0.0264,-0.0278,-0.0236,-0.0206,-0.0204,-0.015,-0.013,-0.0091,-0.0033,-0.0006,-0.0014,0.0081,0.0055,0.0057,0.0062,0.0095,0.0103,0.011,0.0017,0.0016,0.0016,0,0,-0.0383,-0.0358,-0.0315,-0.029,-0.0251,-0.0235,-0.0224,-0.0185,-0.0172,-0.0118,-0.0115,-0.0079,-0.0011,0.0017,0.0039,0.0101,0.0103,0.0113,0.014,0.0173,0.018,0.0186,0.0209,0.0217,0.0119,0.0119,0.0119,0,-0.0366,-0.0307,-0.0293,-0.0251,-0.0226,-0.0223,-0.0179,-0.0154,-0.0105,-0.0088,-0.0098,-0.0012,0.0014,0.0079,0.0094,0.0112,0.0125,0.0109,0.0178,0.0184,0.019,0.0212,0.0221,0.012,0.012,0.012,0.0119,0,-0.0287,-0.0246,-0.0216,-0.0169,-0.0141,-0.0098,-0.0077,-0.0051,-0.0045,-0.0027,0.0028,0.0059,0.0105,0.012,0.0127,0.0187,0.0181,0.0174,0.0156,0.0199,0.022,0.0229,0.0122,0.0121,0.0121,0.012,0,0,-0.0228,-0.0174,-0.0163,-0.0141,-0.0099,-0.0067,-0.0024,0.002,0.0043,0.0076,0.0114,0.0171,0.0165,0.0191,0.0201,0.023,0.0279,0.022,0.0221,0.0231,0.0348,0.0354,0.0364,0.0279,0.028,0.0282,0.0345,0,-0.017,-0.0093,-0.008,-0.0012,0.0026,0.003,0.0067,0.0098,0.0115,0.0151,0.0171,0.0211,0.0199,0.0215,0.0244,0.0266,0.0303,0.0262,0.0316,0.0317,0.0308,0.0375,0.0382,0.044,0.0353,0.0355,0.0356,0,-0.0092,-0.0057,0.0015,0.0052,0.0069,0.0102,0.0144,0.0177,0.0212,0.0223,0.0251,0.0258,0.0304,0.0282,0.0346,0.0318,0.0341,0.0355,0.0358,0.0365,0.034,0.0385,0.0458,0.0468,0.0369,0.0368,0.0367,0,-0.0054,0.0011,0.0063,0.0081,0.0125,0.0149,0.0169,0.0202,0.0228,0.0264,0.0281,0.0321,0.0344,0.0376,0.0394,0.0376,0.0457,0.0437,0.0469,0.0469,0.0488,0.0486,0.0567,0.0499,0.0499,0.0499,0.0499,0,0.001,0.0054,0.008,0.0112,0.0161,0.0176,0.0225,0.0245,0.0274,0.031,0.0315,0.0349,0.0369,0.0406,0.042,0.0472,0.0482,0.0493,0.0496,0.0494,0.0492,0.051,0.0507,0.0501,0.0501,0.05,0.05,0,0.0062,0.0081,0.0138,0.0175,0.0185,0.022,0.0253,0.0284,0.0301,0.0346,0.0358,0.0385,0.0429,0.0449,0.0503,0.0513,0.0572,0.0572,0.056,0.0562,0.0594,0.0591,0.069,0.0704,0.0625,0.0626,0.0626,0,0.0103,0.0136,0.0177,0.0201,0.0222,0.0261,0.0287,0.0302,0.0329,0.0371,0.0398,0.0441,0.0478,0.0548,0.0573,0.0615,0.0617,0.0648,0.0623,0.0619,0.0619,0.0617,0.0621,0.0653,0.0654,0.0655,0.0655,0,0.0173,0.0181,0.0217,0.0258,0.0288,0.0321,0.0352,0.0372,0.0393,0.0423,0.0468,0.0496,0.0551,0.0595,0.0638,0.0659,0.0662,0.0663,0.0673,0.0671,0.0663,0.0669,0.0575,0.0661,0.066,0.066,0.066,0.0659,0.0221,0.0252,0.0285,0.0326,0.0352,0.0382,0.0413,0.0433,0.0471,0.0517,0.0524,0.0571,0.0606,0.0664,0.0687,0.0725,0.0717,0.0731,0.0735,0.0739,0.0741,0.0656,0.0733,0.0732,0.0732,0.0732,0.0732,0,0.0293,0.0315,0.0352,0.0397,0.0429,0.0426,0.0462,0.0489,0.0531,0.0562,0.0598,0.0649,0.0692,0.0719,0.0763,0.0788,0.079,0.0799,0.0798,0.0803,0.0745,0.0733,0.0797,0.0797,0.0797,0.0797,0.0797,0.0797,0.0334,0.0386,0.0398,0.0463,0.0484,0.053,0.0551,0.0579,0.0604,0.0661,0.0696,0.0714,0.0744,0.0789,0.0828,0.0836,0.0852,0.0861,0.0869,0.0814,0.0807,0.0801,0.079,0.0864,0.0865,0.0924,0.0925,0.0925]},{"header":{"parameterUnit":"m.s-1","parameterCategory":1,"la1":30.2991,"la2":30.254,"lo1":-89.0895,"lo2":-89.0444,"dy":0.0017,"dx":0.0017,"nx":28,"ny":28,"refTime":"2024-05-07T21:00:00:Z","depth":0,"parameterNumber":3,"parameterNumberName":"V-component_of_WINDS"},"data":[0,0,0,0,0,0,0,0,0,0,0,0,0,0,0,0,0,0,0,0,0,0,0,0,0,0,0,0,0,0,0,0,0,0,0,0,0,0,0,0,0,0,0,0,0,0,0,0,0,0,0,0,0,0,0,0,0,0,5.0867,5.0868,0,5.0979,5.098,5.0981,5.0977,5.0975,5.0974,5.0972,5.108,5.1085,5.1089,0,0,0,0,0,0,0,0,0,0,0,0,0,5.0644,5.0648,5.0867,5.0868,5.0869,5.0979,5.098,5.0982,5.0977,5.0975,5.0973,5.0972,5.1079,5.1084,5.1089,0,0,0,0,0,0,0,0,0,0,0,0,0,5.0747,5.065,5.0866,5.088,5.0883,5.0978,5.098,5.0982,5.0978,5.0975,5.0973,5.0971,5.1077,5.1083,5.109,5.1177,0,0,5.111,5.1113,0,0,0,0,0,0,0,0,5.0741,5.0755,5.0877,5.088,5.0883,5.0962,5.0942,5.1047,5.0978,5.0941,5.0972,5.097,5.1042,5.1051,5.1077,5.1182,5.1186,5.111,5.1114,5.1117,5.1119,0,0,0,0,0,0,0,5.0734,5.075,5.0911,5.0879,5.0882,5.088,5.0892,5.0961,5.1003,5.0944,5.0944,5.0958,5.1043,5.1071,5.108,5.1188,5.111,5.1116,5.112,5.1122,5.1374,5.1376,0,0,0,0,0,0,5.0725,5.0744,5.0907,5.0914,5.0805,5.0886,5.0899,5.0938,5.1003,5.101,5.096,5.0957,5.1061,5.1072,5.1084,5.1193,5.1117,5.1123,5.1127,5.1371,5.1374,5.1377,0,0,0,0,0,0,5.072,5.0739,5.0903,5.0829,5.085,5.0892,5.0936,5.0942,5.097,5.1015,5.1021,5.0981,5.106,5.1075,5.1155,5.1197,5.1126,5.1132,5.1368,5.1372,5.1376,5.141,0,0,0,0,0,0,5.0713,5.0737,5.0771,5.083,5.0854,5.0973,5.0939,5.0946,5.0982,5.098,5.1036,5.1043,5.1059,5.1146,5.1162,5.1204,5.1137,5.1364,5.137,5.1375,5.1406,5.1415,5.1423,0,0,0,0,0,5.0706,5.0774,5.0773,5.0793,5.0898,5.0976,5.0989,5.1008,5.0985,5.102,5.1049,5.1041,5.1189,5.1154,5.1172,5.1217,5.1362,5.1368,5.1374,5.1402,5.1413,5.1423,0,0,0,0,0,0,5.0715,5.0782,5.0782,5.0871,5.0919,5.0975,5.1019,5.1019,5.1071,5.1067,5.1086,5.1099,5.1181,5.1206,5.1166,5.1307,5.1272,5.1283,5.1287,5.1298,5.1307,5.13,5.1142,0,0,0,0,0,5.0728,5.0788,5.0842,5.0916,5.094,5.0976,5.101,5.1021,5.107,5.1089,5.1124,5.1169,5.1227,5.1264,5.1318,5.1409,5.1423,5.1449,5.1458,5.1465,5.1474,5.1528,5.1541,5.1398,5.1398,5.1398,0,0,5.0755,5.0799,5.0834,5.0919,5.0957,5.1018,5.0992,5.1056,5.1102,5.1097,5.1178,5.1205,5.1257,5.1345,5.1385,5.1369,5.1517,5.1473,5.1478,5.1484,5.1536,5.1549,5.1561,5.1402,5.1402,5.1401,0,0,5.0835,5.0873,5.0942,5.0981,5.1041,5.1065,5.1081,5.1139,5.1158,5.1239,5.1239,5.1292,5.1389,5.1429,5.1461,5.1561,5.1557,5.1578,5.1624,5.1676,5.1688,5.1698,5.1737,5.175,5.1587,5.1587,5.1587,0,5.086,5.0954,5.0976,5.1043,5.1081,5.1084,5.1154,5.119,5.1263,5.1289,5.127,5.1396,5.1431,5.153,5.1555,5.158,5.16,5.1572,5.1685,5.1695,5.1705,5.1742,5.1756,5.1589,5.1589,5.1589,5.1588,0,5.0983,5.1048,5.1096,5.1171,5.1214,5.1282,5.1314,5.1355,5.1363,5.1389,5.1473,5.1516,5.1582,5.1606,5.1612,5.1707,5.1696,5.1681,5.1647,5.1721,5.1756,5.177,5.1593,5.1592,5.1591,5.159,0,0,5.107,5.1161,5.1178,5.1214,5.1282,5.1332,5.14,5.1468,5.1504,5.1554,5.1613,5.1698,5.1687,5.1723,5.1735,5.178,5.1862,5.1761,5.1762,5.178,5.1972,5.1984,5.2,5.1859,5.1862,5.1864,5.1968,0,5.116,5.1284,5.1308,5.1416,5.1478,5.1484,5.1544,5.1592,5.1619,5.1674,5.1702,5.1764,5.1742,5.1765,5.1811,5.1842,5.1901,5.1835,5.1915,5.1917,5.1903,5.2018,5.203,5.2126,5.1982,5.1984,5.1986,0,5.128,5.1339,5.1455,5.1519,5.1545,5.1599,5.1665,5.1718,5.1773,5.1789,5.1834,5.1841,5.1913,5.1876,5.1976,5.1931,5.1965,5.1986,5.199,5.1999,5.1957,5.2032,5.2157,5.2172,5.2007,5.2005,5.2004,0,5.1336,5.1444,5.1528,5.1558,5.1634,5.1672,5.1705,5.1758,5.1799,5.1856,5.1883,5.1946,5.1981,5.203,5.2055,5.2025,5.2154,5.2118,5.217,5.217,5.2198,5.2196,5.2332,5.2217,5.2216,5.2216,5.2216,0,5.1434,5.1505,5.1555,5.1607,5.1687,5.1714,5.1793,5.1825,5.1873,5.1931,5.1938,5.1992,5.2021,5.2079,5.2099,5.2181,5.2195,5.2211,5.2216,5.2212,5.221,5.2235,5.2229,5.222,5.2219,5.2218,5.2218,0,5.151,5.1546,5.1639,5.1705,5.1724,5.178,5.1836,5.1887,5.1915,5.1989,5.2007,5.2051,5.2121,5.2151,5.2234,5.2248,5.2343,5.2341,5.2325,5.2327,5.2379,5.2375,5.2537,5.2561,5.2428,5.2429,5.243,0,5.1571,5.1627,5.1701,5.1743,5.1778,5.1843,5.1886,5.1915,5.196,5.2029,5.2072,5.2143,5.2201,5.2312,5.235,5.2416,5.2417,5.247,5.2427,5.2422,5.2421,5.2418,5.2425,5.2477,5.2479,5.248,5.2481,0,5.1677,5.1694,5.1757,5.1828,5.1881,5.1937,5.1991,5.2024,5.2062,5.2111,5.2185,5.223,5.232,5.239,5.2459,5.2491,5.2493,5.2494,5.251,5.2507,5.2497,5.2506,5.2349,5.249,5.2489,5.2489,5.2488,5.2488,5.175,5.1801,5.1863,5.1934,5.198,5.2032,5.2085,5.2122,5.2184,5.2261,5.2274,5.2353,5.241,5.2503,5.2539,5.2601,5.2587,5.261,5.2616,5.2622,5.2627,5.2487,5.2613,5.2612,5.2612,5.2612,5.2612,0,5.1858,5.19,5.1965,5.2045,5.2101,5.2101,5.2163,5.221,5.228,5.2334,5.2393,5.2479,5.2549,5.2595,5.2665,5.2706,5.2709,5.2724,5.2722,5.273,5.2633,5.2613,5.2721,5.2721,5.2721,5.2721,5.2721,5.2721,5.1922,5.2011,5.2035,5.2147,5.2187,5.2267,5.2303,5.2352,5.2396,5.2493,5.2553,5.2583,5.2634,5.2709,5.2774,5.2785,5.2812,5.2828,5.2839,5.2747,5.2736,5.2725,5.2707,5.2833,5.2833,5.2932,5.2933,5.2933]}]]